Location: Unspecified
(0.0000°N, 0.0000°E)
Time: 18:21:06
(UTC+00:00)

Hubble Space Telescope - Pass Details

Date: 13 November 2025
Orbit: 482 x 485 km, 28.5° (Epoch: 06 November)

Event Time Altitude Azimuth Distance (km) Brightness Sun altitude
Exits shadow 04:49:27 21° 281° (W) 1,109 1.7 -13.0°
Maximum altitude 04:51:16 34° 330° (NNW) 810 1.3 -12.6°
Drops below altitude 10° 04:54:44 10° 36° (NE) 1,644 3.5 -11.8°
Sets 04:57:04 0° 46° (NE) 2,521 4.6 -11.2°
